White Plains, CT

4:02 PM EST on December 09, 2019 (GMT -0500)
Westchester County

Weather History for KHPN - August, 2019

Change the Weather History Date:

Tuesday, August 13, 2019

  Actual Average Record
Temperature  
Mean Temperature 73 °F -  
Max Temperature 75 °F 80 °F 95 °F (2016)
Min Temperature 71 °F 63 °F 52 °F (1979)
Cooling Degree Days 8    
Growing Degree Days 23 (Base 50)    
Moisture  
Dew Point 68 °F    
Average Humidity 83    
Maximum Humidity 93    
Minimum Humidity 68    
Precipitation  
Precipitation 0.08 in - - ()
Sea Level Pressure  
Sea Level Pressure 29.80 in    
Wind  
Wind Speed 3 mph (SSW)    
Max Wind Speed 8 mph    
Max Gust Speed -    
Visibility 8 miles    
Events Rain    
Averages and records for this station are not official NWS values.
T = Trace of Precipitation, MM = Missing Value Source: NWS Daily Summary

Daily Weather History Graph

Daily Weather History Graph

Search for Another Location

Airport or City:

Astronomy

Aug. 13, 2019 Rise Set
Actual Time 6:02 AM EDT 7:56 PM EDT
Civil Twilight 5:32 AM EDT 8:26 PM EDT
Nautical Twilight 4:56 AM EDT 9:02 PM EDT
Astronomical Twilight 4:16 AM EDT 9:41 PM EDT
Moon 7:10 PM EDT (8/13) 4:00 AM EDT (8/13)
Length of Visible Light 14h 53m
Length of Day
13h 54m
Waxing Gibbous, 97% of the Moon is Illuminated
Aug 13
Waxing Gibbous
Aug 15
Full
Aug 23
Last Quarter
Aug 30
New
Sep 5
First Quarter

Hourly Weather History & Observations

Time (EDT) Temp. Dew Point Humidity Pressure Visibility Wind Dir Wind Speed Gust Speed Precip Events Conditions
12:56 AM 73.9 °F 64.0 °F 71% 29.86 in 10.0 mi WSW 5.8 mph - N/A   Clear
1:56 AM 73.9 °F 63.0 °F 68% 29.84 in 10.0 mi West 3.5 mph - N/A   Overcast
2:56 AM 73.9 °F 64.0 °F 71% 29.83 in 10.0 mi South 3.5 mph - N/A   Overcast
3:56 AM 73.9 °F 64.0 °F 71% 29.82 in 10.0 mi Calm Calm - N/A   Overcast
4:56 AM 73.9 °F 66.0 °F 76% 29.81 in 10.0 mi Variable 3.5 mph - 0.00 in   Mostly Cloudy
5:56 AM 73.0 °F 66.0 °F 79% 29.81 in 10.0 mi South 3.5 mph - 0.00 in   Mostly Cloudy
6:56 AM 72.0 °F 68.0 °F 87% 29.81 in 10.0 mi Calm Calm - N/A   Overcast
7:56 AM 73.9 °F 68.0 °F 82% 29.81 in 10.0 mi Calm Calm - 0.00 in   Mostly Cloudy
8:56 AM 73.0 °F 69.1 °F 87% 29.81 in 7.0 mi SW 3.5 mph - 0.02 in   Mostly Cloudy
9:56 AM 73.9 °F 69.1 °F 85% 29.81 in 7.0 mi Calm Calm - N/A   Mostly Cloudy
10:56 AM 73.9 °F 70.0 °F 87% 29.83 in 7.0 mi West 5.8 mph - 0.00 in   Mostly Cloudy
11:29 AM 73.9 °F 70.0 °F 87% 29.84 in 2.5 mi West 3.5 mph - 0.01 in Rain Light Rain
11:56 AM 73.9 °F 71.1 °F 91% 29.82 in 2.5 mi West 3.5 mph - 0.04 in Rain Light Rain
12:56 PM 73.9 °F 72.0 °F 93% 29.83 in 7.0 mi Variable 3.5 mph - 0.02 in   Mostly Cloudy
1:56 PM 73.9 °F 69.1 °F 85% 29.81 in 7.0 mi NNW 5.8 mph - N/A   Mostly Cloudy
2:56 PM 73.9 °F 66.9 °F 79% 29.78 in 10.0 mi NE 3.5 mph - N/A   Mostly Cloudy
3:56 PM 75.0 °F 66.9 °F 76% 29.77 in 10.0 mi Calm Calm - N/A   Scattered Clouds
4:56 PM 75.0 °F 69.1 °F 82% 29.77 in 10.0 mi SSE 8.1 mph - N/A   Mostly Cloudy
5:56 PM 75.0 °F 68.0 °F 79% 29.76 in 10.0 mi South 3.5 mph - N/A   Scattered Clouds
6:56 PM 73.9 °F 68.0 °F 82% 29.77 in 10.0 mi SSE 4.6 mph - 0.00 in   Drizzle
7:56 PM 73.0 °F 68.0 °F 84% 29.76 in 10.0 mi ESE 4.6 mph - 0.00 in   Overcast
8:56 PM 72.0 °F 69.1 °F 91% 29.78 in 10.0 mi Calm Calm - N/A   Partly Cloudy
9:56 PM 71.1 °F 69.1 °F 93% 29.78 in 8.0 mi SE 3.5 mph - N/A   Partly Cloudy
10:56 PM 72.0 °F 70.0 °F 93% 29.78 in 8.0 mi Calm Calm - N/A   Scattered Clouds
11:56 PM 71.1 °F 69.1 °F 93% 29.78 in 6.0 mi Calm Calm - N/A   Mostly Cloudy